STARLINK-3174, 51468

Orbit data source: Space-Track

STARLINK-3174, 51468 is a payload satellite owned by SpaceX/Seattle (US) in LEO that was launched on Thu, 03 Feb 2022 UTC via an FALCON 9 launch vehicle from the Air Force Eastern Test Range (AFETR). Payload-class satellites include a variety of spacecraft equipped with specific instruments for various scientific and technological missions. These include communications satellites like Starlink; space stations such as the ISS; scientific satellites like the Hubble; Earth observation satellites from companies like Planet Labs, Umbra, and HawkEye 360; GPS; miniature CubeSats for education and research; and military/defense satellites.

Loading next visibility...
Identifier
51468, 2022-010N
Orbit
LEO
Country
Flag of USUS
Related business
Manufacturer
SpaceX/Seattle
Mission
Operational Commercial Communications
Bus & Motor
STARLINK, Unknown motor
Mass
297 kg wet, ~275 kg dry
Launch date (UTC)
2022-02-03 (4 years ago)
Launch vehicle
FALCON 9
Launch site
Air Force Eastern Test Range (AFETR)
Object type
Payload
Rocket body
Debris
Shape & HBR
Box + 1 Pan, 10.1 m
Radar Cross Section
13.562 m², Large (>1 m²)

Expand to show TLE details & history
Last TLE update: 2 days ago

TLE from 2 days ago
0 STARLINK-3174
1 51468U 22010N   26171.28376828  .00000482  00000-0  48370-4 0  9990
2 51468  53.1595 178.4052 0001220  89.1790 270.9341 15.08838545242001
Epoch: 2026-06-20T06:48Z
TLE epoch observation values (Epoch: 2026-06-20T06:48:37.579Z)
Latitude
-0.00003°
Longitude
167.74799°
Altitude
540.625 km
Speed
7.593 km/s
True Right ascension
11h 53m 37s
True Declination
0° 00' 00"
Sunlit
Object was in daylight at epoch
Visualization orbit readout
Latitude
Unknown
Longitude
Unknown
Altitude
Unknown
Speed
Unknown
Apparent Right ascension
Unknown
Apparent Declination
Unknown
Sunlit
N/A
Visualization observer readout
Local Sidereal Time
00:50:40
Azimuth
Unknown
Elevation
Unknown
Doppler factor
Unknown
Orbital elements
Apogee altitude
540.846 km
Perigee altitude
539.158 km
Semi-major axis
6,918.139 km
Eccentricity
0.00012
Inclination
53.1595°
RAAN
178.4052°
Arg. of periapsis
89.179°
True anomaly
270.92012°
Mean anomaly
270.9341°
Eccentric anomaly
270.92711°
Mean motion
3.77189 °/min
Orbital period
95.44 mins
BSTAR
0.00004837
Loading maneuver chart data...
Computing Atmospheric mass density...

Documentation

Showing up to 5 results
|